FW9262 Weather Reports


time (UTC)temp
C
wind
direction
speed
KPH
gust
KPH
rain 1hr
cm
rain 24hr
cm
rain mn
cm
humidity
%
barometer
mb
20260902192526 24 249 4.8 9.7 0.00 0.00 0.00 65 1018.7
20260902192025 25 211 3.2 6.4 0.00 0.00 0.00 62 1019.0
20260902191520 24 282 9.7 11.3 0.00 0.00 0.00 65 1019.0
20260902191015 25 193 3.2 9.7 0.00 0.00 0.00 65 1019.0
20260902190510 25 254 3.2 6.4 0.00 0.00 0.00 65 1019.0
20260902190006 25 120 4.8 12.9 0.00 0.00 0.00 65 1019.0
20260902185502 25 236 3.2 6.4 0.00 0.00 0.00 64 1019.3
20260902184956 25 339 1.6 6.4 0.00 0.00 0.00 65 1019.3
20260902184452 25 298 3.2 6.4 0.00 0.00 0.00 66 1019.3
20260902183947 25 265 3.2 11.3 0.00 0.00 0.00 66 1019.3
20260902183443 25 210 3.2 4.8 0.00 0.00 0.00 64 1019.3
20260902182939 25 316 3.2 6.4 0.00 0.00 0.00 64 1019.3
20260902182435 24 228 3.2 4.8 0.00 0.00 0.00 67 1019.3
20260902181931 25 279 8.0 9.7 0.00 0.00 0.00 65 1019.3
20260902181426 25 280 8.0 9.7 0.00 0.00 0.00 65 1019.3
20260902180921 25 240 1.6 6.4 0.00 0.00 0.00 64 1019.3
20260902180416 25 239 1.6 3.2 0.00 0.00 0.00 65 1019.3
20260902175912 24 311 3.2 4.8 0.00 0.00 0.00 66 1019.3
20260902175407 24 92 3.2 6.4 0.00 0.00 0.00 66 1019.3
20260902174902 24 226 3.2 4.8 0.00 0.00 0.00 66 1019.3
20260902174400 24 218 3.2 6.4 0.00 0.00 0.00 66 1019.3
20260902173855 25 198 3.2 6.4 0.00 0.00 0.00 66 1019.0
20260902173354 24 328 0.0 1.6 0.00 0.00 0.00 66 1019.3
20260902172849 23 264 3.2 4.8 0.00 0.00 0.00 67 1019.3
20260902172348 23 201 4.8 9.7 0.00 0.00 0.00 68 1019.3
20260902171844 23 132 3.2 4.8 0.00 0.00 0.00 66 1019.3
20260902171339 23 161 1.6 4.8 0.00 0.00 0.00 68 1019.3
20260902170835 23 145 3.2 4.8 0.00 0.00 0.00 68 1019.3
20260902170330 23 299 1.6 3.2 0.00 0.00 0.00 70 1019.3
20260902165826 23 289 3.2 4.8 0.00 0.00 0.00 68 1019.0
20260902165325 25 199 3.2 3.2 0.00 0.00 0.00 65 1019.0
20260902164819 23 352 0.0 1.6 0.00 0.00 0.00 66 1019.0
20260902164314 23 61 1.6 4.8 0.00 0.00 0.00 67 1019.0
20260902163808 23 39 1.6 4.8 0.00 0.00 0.00 66 1019.0
20260902163303 23 317 1.6 6.4 0.00 0.00 0.00 66 1019.0
20260902162802 23 101 3.2 3.2 0.00 0.00 0.00 66 1019.0
20260902162256 23 354 1.6 6.4 0.00 0.00 0.00 67 1019.0
20260902161756 23 350 0.0 3.2 0.00 0.00 0.00 68 1019.0
20260902161252 22 32 1.6 3.2 0.00 0.00 0.00 71 1019.0
20260902160748 23 353 3.2 4.8 0.00 0.00 0.00 68 1019.3
20260902160243 23 335 0.0 1.6 0.00 0.00 0.00 68 1019.0
20260902155741 22 10 0.0 1.6 0.00 0.00 0.00 70 1019.0
20260902155240 22 339 1.6 1.6 0.00 0.00 0.00 70 1019.0
20260902154735 22 347 0.0 1.6 0.00 0.00 0.00 69 1019.0
20260902154231 23 273 1.6 1.6 0.00 0.00 0.00 70 1019.0
20260902153730 22 330 1.6 1.6 0.00 0.00 0.00 71 1019.0
20260902153230 22 49 1.6 3.2 0.00 0.00 0.00 71 1019.0
20260902152726 22 51 0.0 1.6 0.00 0.00 0.00 72 1019.0
20260902152221 22 314 0.0 0.0 0.00 0.00 0.00 71 1018.7
20260902151717 22 351 0.0 1.6 0.00 0.00 0.00 71 1018.7
20260902151212 22 8 0.0 1.6 0.00 0.00 0.00 72 1018.7
20260902150707 22 36 1.6 1.6 0.00 0.00 0.00 71 1019.0
20260902150203 22 358 1.6 1.6 0.00 0.00 0.00 74 1019.0
20260902145702 21 27 0.0 1.6 0.00 0.00 0.00 75 1018.7
20260902145201 21 0 1.6 1.6 0.00 0.00 0.00 75 1018.7
20260902144658 22 346 0.0 1.6 0.00 0.00 0.00 74 1018.7
20260902144153 21 350 0.0 1.6 0.00 0.00 0.00 78 1018.7
20260902143648 20 347 0.0 0.0 0.00 0.00 0.00 85 1019.0
20260902143143 20 347 0.0 0.0 0.00 0.00 0.00 87 1019.0
20260902142639 20 346 0.0 0.0 0.00 0.00 0.00 89 1018.7
20260902142135 19 345 0.0 0.0 0.00 0.00 0.00 90 1018.7
20260902141634 18 345 0.0 0.0 0.00 0.00 0.00 91 1019.0
20260902141130 18 344 0.0 0.0 0.00 0.00 0.00 91 1018.7
20260902140625 17 341 0.0 0.0 0.00 0.00 0.00 91 1018.7
20260902140120 17 341 0.0 0.0 0.00 0.00 0.00 92 1018.3
20260902135619 17 344 0.0 0.0 0.00 0.00 0.00 92 1018.3
20260902135114 16 345 0.0 0.0 0.00 0.00 0.00 92 1018.3
20260902134610 16 339 0.0 0.0 0.00 0.00 0.00 92 1018.3
20260902134110 16 336 0.0 0.0 0.00 0.00 0.00 92 1018.3
20260902133605 16 343 0.0 0.0 0.00 0.00 0.00 92 1018.3
20260902133105 16 343 0.0 0.0 0.00 0.00 0.00 92 1018.0
20260902132600 16 339 0.0 0.0 0.00 0.00 0.00 91 1018.0
20260902132055 16 340 0.0 0.0 0.00 0.00 0.00 91 1018.3
20260902131552 16 343 0.0 0.0 0.00 0.00 0.00 91 1018.0
20260902131052 16 330 0.0 0.0 0.00 0.00 0.00 91 1018.0
20260902130547 16 341 0.0 0.0 0.00 0.00 0.00 91 1018.0
20260902130042 16 329 0.0 1.6 0.00 0.00 0.00 91 1018.0
20260902125539 16 334 0.0 0.0 0.00 0.00 0.00 91 1018.3
20260902125034 16 341 0.0 0.0 0.00 0.00 0.00 91 1018.3
20260902124531 16 341 0.0 0.0 0.00 0.00 0.00 91 1018.3
20260902124031 16 340 0.0 0.0 0.00 0.00 0.00 91 1018.3
20260902123527 16 345 0.0 0.0 0.00 0.00 0.00 90 1018.0
20260902123026 16 335 0.0 0.0 0.00 0.00 0.00 90 1018.0
20260902122526 16 337 0.0 0.0 0.00 0.00 0.00 90 1018.0
20260902122021 16 348 0.0 0.0 0.00 0.00 0.00 90 1018.3
20260902121516 16 336 0.0 0.0 0.00 0.00 0.00 90 1018.3
20260902121011 16 340 0.0 0.0 0.00 0.00 0.00 90 1018.0
20260902120507 16 344 0.0 0.0 0.00 0.00 0.00 90 1018.0
20260902120003 16 334 0.0 0.0 0.00 0.00 0.00 90 1018.3
20260902115458 16 341 0.0 0.0 0.00 0.00 0.00 90 1018.3
20260902114954 16 339 0.0 0.0 0.00 0.00 0.00 90 1018.3
20260902114449 16 343 0.0 0.0 0.00 0.00 0.00 90 1018.3
20260902113944 16 340 0.0 0.0 0.00 0.00 0.00 90 1018.3
20260902113440 16 341 0.0 0.0 0.00 0.00 0.00 91 1018.3
20260902112939 16 339 0.0 0.0 0.00 0.00 0.00 91 1018.3
20260902112436 16 337 0.0 1.6 0.00 0.00 0.00 91 1018.3
20260902111932 16 339 0.0 0.0 0.00 0.00 0.00 91 1018.3
20260902111428 16 343 0.0 0.0 0.00 0.00 0.00 90 1018.3
20260902110924 16 336 0.0 0.0 0.00 0.00 0.00 90 1018.3
20260902110420 16 341 0.0 0.0 0.00 0.00 0.00 90 1018.3
20260902105914 16 341 0.0 0.0 0.00 0.00 0.00 90 1018.7
20260902105409 16 334 0.0 0.0 0.00 0.00 0.00 90 1018.3
20260902104904 16 343 0.0 0.0 0.00 0.00 0.00 90 1018.7
20260902104400 16 349 0.0 0.0 0.00 0.00 0.00 90 1018.3
20260902103859 16 345 0.0 0.0 0.00 0.00 0.00 90 1018.7
20260902103354 16 339 0.0 0.0 0.00 0.00 0.00 90 1018.3
20260902102849 17 343 0.0 0.0 0.00 0.00 0.00 90 1018.3
20260902102348 17 338 0.0 0.0 0.00 0.00 0.00 90 1018.3
20260902101843 17 337 0.0 0.0 0.00 0.00 0.00 90 1018.3
20260902101337 17 336 0.0 0.0 0.00 0.00 0.00 90 1018.0
20260902100837 17 337 0.0 0.0 0.00 0.00 0.00 90 1018.3
20260902100336 17 339 0.0 0.0 0.00 0.00 0.00 89 1018.7
20260902095831 17 346 0.0 0.0 0.00 0.00 0.00 89 1018.7
20260902095326 17 345 0.0 0.0 0.00 0.00 0.00 89 1018.3
20260902094825 17 344 0.0 0.0 0.00 0.00 0.00 89 1018.3
20260902094322 17 347 0.0 0.0 0.00 0.00 0.00 89 1018.3
20260902093821 17 347 0.0 0.0 0.00 0.00 0.00 89 1018.3
20260902093316 17 347 0.0 0.0 0.00 0.00 0.00 89 1018.3
20260902092815 17 341 0.0 0.0 0.00 0.00 0.00 88 1018.3
20260902092311 17 338 0.0 0.0 0.00 0.00 0.00 88 1018.3
20260902091811 17 343 0.0 0.0 0.00 0.00 0.00 88 1018.7
20260902091307 17 0 0.0 0.0 0.00 0.00 0.00 88 1018.3
20260902090803 17 358 0.0 0.0 0.00 0.00 0.00 88 1018.3
20260902090302 17 354 0.0 0.0 0.00 0.00 0.00 88 1018.3
20260902085801 18 352 0.0 0.0 0.00 0.00 0.00 88 1018.3
20260902085257 18 328 0.0 0.0 0.00 0.00 0.00 88 1018.0
20260902084753 18 355 0.0 0.0 0.00 0.00 0.00 88 1018.3
20260902084248 18 330 0.0 0.0 0.00 0.00 0.00 87 1018.3
20260902083744 18 357 0.0 1.6 0.00 0.00 0.00 87 1018.3
20260902083238 18 350 0.0 0.0 0.00 0.00 0.00 87 1018.3
20260902082733 18 36 1.6 1.6 0.00 0.00 0.00 87 1018.3
20260902082230 18 1 0.0 1.6 0.00 0.00 0.00 86 1018.7
20260902081726 18 27 1.6 3.2 0.00 0.00 0.00 86 1018.3
20260902081221 18 6 1.6 3.2 0.00 0.00 0.00 87 1018.7
20260902080716 18 358 1.6 3.2 0.00 0.00 0.00 87 1018.3
20260902080213 18 28 3.2 3.2 0.00 0.00 0.00 87 1018.3
20260902075712 18 24 0.0 3.2 0.00 0.00 0.00 87 1018.3
20260902075209 18 24 1.6 1.6 0.00 0.00 0.00 87 1018.3
20260902074708 18 3 0.0 0.0 0.00 0.00 0.00 86 1018.3
20260902074203 18 351 0.0 0.0 0.00 0.00 0.00 86 1018.3
20260902073659 18 1 0.0 0.0 0.00 0.00 0.00 86 1018.3
20260902073155 18 2 0.0 0.0 0.00 0.00 0.00 86 1018.3
20260902072651 18 3 0.0 0.0 0.00 0.00 0.00 86 1018.0
20260902072147 18 358 0.0 0.0 0.00 0.00 0.00 86 1018.0
20260902071642 18 358 0.0 0.0 0.00 0.00 0.00 86 1018.0
20260902071138 18 356 0.0 0.0 0.00 0.00 0.00 86 1018.0
20260902070634 18 352 0.0 0.0 0.00 0.00 0.00 86 1018.0
20260902070133 18 358 0.0 0.0 0.00 0.00 0.00 86 1018.0
20260902065632 18 340 0.0 0.0 0.00 0.00 0.00 86 1018.0
20260902065128 18 354 0.0 0.0 0.00 0.00 0.00 85 1018.0
20260902064623 18 354 0.0 0.0 0.00 0.00 0.00 85 1018.0
20260902064119 18 357 0.0 0.0 0.00 0.00 0.00 85 1018.0
20260902063614 18 353 0.0 0.0 0.00 0.00 0.00 85 1018.0
20260902063109 18 349 0.0 0.0 0.00 0.00 0.00 85 1018.0
20260902062607 18 351 0.0 0.0 0.00 0.00 0.00 84 1018.0
20260902062103 18 354 0.0 0.0 0.00 0.00 0.00 84 1018.0
20260902061603 18 341 0.0 0.0 0.00 0.00 0.00 83 1018.0
20260902061059 18 344 0.0 0.0 0.00 0.00 0.00 82 1017.6
20260902060555 18 343 0.0 0.0 0.00 0.00 0.00 82 1017.6
20260902060051 19 339 0.0 0.0 0.00 0.00 0.00 82 1018.0
20260902055546 19 336 0.0 0.0 0.00 0.00 0.00 82 1017.6
20260902055042 19 339 0.0 0.0 0.00 0.00 0.00 82 1017.6
20260902054537 18 333 0.0 0.0 0.00 0.00 0.00 82 1017.6
20260902054032 19 345 0.0 0.0 0.00 0.00 0.00 81 1017.6
20260902053527 19 341 0.0 0.0 0.00 0.00 0.00 82 1018.0
20260902053027 19 329 0.0 1.6 0.00 0.00 0.00 82 1017.6
20260902052521 18 337 0.0 1.6 0.00 0.00 0.00 83 1017.6
20260902052017 18 340 0.0 0.0 0.00 0.00 0.00 82 1017.6
20260902051517 18 347 0.0 0.0 0.00 0.00 0.00 82 1017.6
20260902051016 18 350 0.0 0.0 0.00 0.00 0.00 82 1017.6
20260902050510 18 354 0.0 0.0 0.00 0.00 0.00 82 1018.0
20260902050008 18 351 0.0 0.0 0.00 0.00 0.00 82 1017.6
20260902045501 18 324 0.0 0.0 0.00 0.00 0.00 81 1017.6
20260902044958 18 341 0.0 0.0 0.00 0.00 0.00 81 1017.6
20260902044452 18 350 0.0 0.0 0.00 0.00 0.00 81 1017.6
20260902043948 18 349 0.0 0.0 0.00 0.00 0.00 81 1017.6
20260902043443 18 353 0.0 0.0 0.00 0.00 0.00 81 1017.3
20260902042938 18 344 0.0 0.0 0.00 0.00 0.00 80 1017.3
20260902042437 18 343 0.0 0.0 0.00 0.00 0.00 80 1017.3
20260902041933 18 342 0.0 0.0 0.00 0.00 0.00 80 1017.3
20260902041427 19 338 0.0 0.0 0.00 0.00 0.00 80 1017.0
20260902040926 19 340 0.0 0.0 0.00 0.00 0.00 79 1017.3
20260902040421 19 343 0.0 0.0 0.00 0.00 0.00 79 1017.3
20260902035921 19 323 0.0 0.0 0.00 0.00 0.00 79 1017.0
20260902035416 20 339 0.0 0.0 0.00 0.00 0.00 78 1017.0
20260902034915 20 333 0.0 0.0 0.00 0.00 0.00 78 1017.0
20260902034410 20 338 0.0 0.0 0.00 0.00 0.00 78 1016.6
20260902033909 20 335 0.0 0.0 0.00 0.00 0.00 78 1017.0
20260902033403 20 334 0.0 0.0 0.00 0.00 0.00 77 1016.6
20260902032902 20 337 0.0 1.6 0.00 0.00 0.00 77 1017.0
20260902032356 20 323 0.0 1.6 0.00 0.00 0.00 76 1016.6
20260902031851 20 317 0.0 1.6 0.00 0.00 0.00 76 1016.6
20260902031347 20 301 1.6 1.6 0.00 0.00 0.00 75 1016.6
20260902030843 20 337 0.0 3.2 0.00 0.00 0.00 75 1016.6
20260902030337 20 308 3.2 4.8 0.00 0.00 0.00 75 1017.0
20260902025836 20 333 1.6 4.8 0.00 0.00 0.00 75 1016.6
20260902025332 20 304 3.2 3.2 0.00 0.00 0.00 75 1016.6
20260902024826 20 285 3.2 6.4 0.00 0.00 0.00 75 1016.6
20260902024322 20 291 1.6 4.8 0.00 0.00 0.00 75 1016.6
20260902023817 20 247 1.6 4.8 0.00 0.00 0.00 74 1016.3
20260902023313 21 285 1.6 4.8 0.00 0.00 0.00 73 1016.3
20260902022811 21 278 3.2 3.2 0.00 0.00 0.00 73 1016.6
20260902022307 21 328 0.0 3.2 0.00 0.00 0.00 72 1016.3
20260902021803 21 342 0.0 3.2 0.00 0.00 0.00 72 1016.3
20260902021257 21 274 0.0 1.6 0.00 0.00 0.00 72 1016.3
20260902020753 21 330 0.0 3.2 0.00 0.00 0.00 72 1016.0
20260902020249 21 284 3.2 6.4 0.00 0.00 0.00 73 1016.3
20260902015744 21 320 3.2 6.4 0.00 0.00 0.00 73 1016.6
20260902015240 21 197 3.2 6.4 0.00 0.00 0.00 75 1016.3
20260902014736 21 272 1.6 4.8 0.00 0.00 0.00 75 1016.6
20260902014233 21 343 0.0 4.8 0.00 0.00 0.00 75 1016.3
20260902013730 21 262 3.2 6.4 0.00 0.00 0.00 74 1016.3
20260902013226 21 318 3.2 9.7 0.00 0.00 0.00 74 1016.6
20260902012721 21 271 4.8 6.4 0.00 0.00 0.00 75 1016.6
20260902012218 21 307 0.0 4.8 0.00 0.00 0.00 75 1016.6
20260902011713 21 297 1.6 3.2 0.00 0.00 0.00 76 1016.6
20260902011212 21 220 3.2 9.7 0.00 0.00 0.00 75 1016.6
20260902010706 22 303 0.0 3.2 0.00 0.00 0.00 76 1016.6
20260902010202 22 289 3.2 6.4 0.00 0.00 0.00 75 1016.6
20260902005700 22 255 3.2 3.2 0.00 0.00 0.00 74 1016.6
20260902005156 22 310 3.2 6.4 0.00 0.00 0.00 74 1016.6
20260902004655 22 251 4.8 6.4 0.00 0.00 0.00 73 1016.6
20260902004150 22 56 3.2 11.3 0.00 0.00 0.00 73 1016.6
20260902003646 22 232 4.8 6.4 0.00 0.00 0.00 72 1016.6
20260902003142 22 222 6.4 9.7 0.00 0.00 0.00 72 1016.6
20260902002636 22 297 4.8 4.8 0.00 0.00 0.00 72 1016.6
20260902002131 22 308 3.2 4.8 0.00 0.00 0.00 72 1017.0
20260902001626 23 266 8.0 11.3 0.00 0.00 0.00 69 1017.0
20260902001121 23 255 3.2 4.8 0.00 0.00 0.00 70 1016.6
20260902000616 24 213 6.4 6.4 0.00 0.00 0.00 68 1016.6
20260902000111 23 251 1.6 6.4 0.00 0.00 0.00 69 1016.6
20260901235610 24 290 8.0 11.3 0.00 0.00 0.00 66 1017.0
20260901235106 23 317 6.4 6.4 0.00 0.00 0.00 69 1017.0
20260901234605 23 252 11.3 14.5 0.00 0.00 0.00 69 1016.6
20260901234100 24 252 6.4 9.7 0.00 0.00 0.00 68 1017.0
20260901233601 24 227 3.2 6.4 0.00 0.00 0.00 67 1017.0
20260901233057 24 324 4.8 4.8 0.00 0.00 0.00 67 1017.0
20260901232552 24 222 8.0 11.3 0.00 0.00 0.00 68 1017.0
20260901232047 23 329 3.2 4.8 0.00 0.00 0.00 68 1017.0
20260901231543 24 256 8.0 11.3 0.00 0.00 0.00 68 1017.3
20260901231039 24 212 3.2 4.8 0.00 0.00 0.00 67 1017.0
20260901230540 25 286 4.8 6.4 0.00 0.00 0.00 67 1017.0
20260901230034 25 195 4.8 11.3 0.00 0.00 0.00 67 1017.3
20260901225529 24 264 1.6 11.3 0.00 0.00 0.00 69 1017.0
20260901225029 24 272 3.2 14.5 0.00 0.00 0.00 68 1017.0
20260901224525 24 300 3.2 9.7 0.00 0.00 0.00 68 1017.0
20260901224021 23 320 1.6 9.7 0.00 0.00 0.00 68 1017.0
20260901223516 24 280 4.8 11.3 0.00 0.00 0.00 67 1017.3
20260901223012 25 289 4.8 6.4 0.00 0.00 0.00 67 1017.3
20260901222508 25 280 1.6 4.8 0.00 0.00 0.00 66 1017.3
20260901222004 25 267 6.4 12.9 0.00 0.00 0.00 66 1017.3
20260901221459 25 243 6.4 11.3 0.00 0.00 0.00 65 1017.0
20260901220954 25 234 6.4 11.3 0.00 0.00 0.00 64 1017.3
20260901220454 25 282 4.8 11.3 0.00 0.00 0.00 65 1017.3
20260901215952 25 284 1.6 6.4 0.00 0.00 0.00 65 1017.6
20260901215451 24 345 3.2 11.3 0.00 0.00 0.00 66 1017.3
20260901214950 25 197 6.4 11.3 0.00 0.00 0.00 64 1017.6
20260901214449 25 262 3.2 11.3 0.00 0.00 0.00 66 1017.6
20260901213944 25 289 3.2 6.4 0.00 0.00 0.00 64 1017.6
20260901213438 25 161 6.4 11.3 0.00 0.00 0.00 63 1017.6
20260901212938 25 224 3.2 9.7 0.00 0.00 0.00 64 1017.3
20260901212433 25 255 3.2 11.3 0.00 0.00 0.00 63 1017.6
20260901211930 25 244 6.4 9.7 0.00 0.00 0.00 61 1017.6
20260901211425 25 326 4.8 9.7 0.00 0.00 0.00 61 1017.6
20260901210921 25 214 4.8 6.4 0.00 0.00 0.00 61 1017.6
20260901210417 24 89 9.7 14.5 0.00 0.00 0.00 63 1017.6
20260901205913 25 257 6.4 12.9 0.00 0.00 0.00 61 1018.0
20260901205407 25 263 6.4 11.3 0.00 0.00 0.00 62 1017.6
20260901204902 26 246 4.8 9.7 0.00 0.00 0.00 61 1018.0
20260901204358 25 239 3.2 4.8 0.00 0.00 0.00 61 1018.0
20260901203858 25 148 3.2 6.4 0.00 0.00 0.00 63 1018.0
20260901203352 25 336 1.6 11.3 0.00 0.00 0.00 64 1018.0
20260901202847 25 234 4.8 11.3 0.00 0.00 0.00 64 1018.3
20260901202342 25 297 3.2 4.8 0.00 0.00 0.00 65 1018.0
20260901201839 24 258 6.4 9.7 0.00 0.00 0.00 67 1018.3
20260901201338 24 292 3.2 6.4 0.00 0.00 0.00 67 1018.3
20260901200832 24 187 4.8 6.4 0.00 0.00 0.00 67 1018.7
20260901200327 24 258 4.8 6.4 0.00 0.00 0.00 66 1018.3
20260901195826 25 307 3.2 9.7 0.00 0.00 0.00 67 1018.7
20260901195319 24 276 3.2 14.5 0.00 0.00 0.00 67 1018.3
20260901194815 25 254 4.8 9.7 0.00 0.00 0.00 66 1018.7
20260901194309 25 209 3.2 4.8 0.00 0.00 0.00 65 1018.3
20260901193806 24 257 4.8 9.7 0.00 0.00 0.00 67 1018.7
20260901193304 24 94 4.8 9.7 0.00 0.00 0.00 68 1018.7